OBJECT C, 60205

Orbit data source: Space-Track

You're viewing an Uncataloged Satellite

Recently launched and/or uncataloged satellites may have evolving metadata. Metadata may include but not limited to: Owner, Maufacturer, Bus, Motor, and Mission.

OBJECT C, 60205 is a satellite owned by Teachers in Space (US) in SSO that was launched on Thu, 04 Jul 2024 UTC via an FIREFLY ALPHA launch vehicle from the Air Force Western Test Range (AFWTR). Unknown objects in Earth's orbit typically refer to objects detected orbiting the Earth but have not yet been identified or cataloged. These objects could be anything from previously untracked satellites, spent rocket stages, debris from satellite collisions, or even natural meteoroids temporarily captured by Earth's gravity.

Loading next visibility...
OBJECT C details
Identifier
60205, 2024-125C
Orbit
SSO
Last TLE update1 day ago
Origin
Flag of USTeachers in Space (US)
ManufacturerQuub
MissionOperational spacecraft
Bus & MotorCUBESAT 3U, Unknown motor
Mass3 kg wet, 3 kg dry
Launch date (UTC)
2024-07-04 (6 months ago)
Launch vehicle
FIREFLY ALPHA
Launch site
Air Force Western Test Range (AFWTR)
Object typeUnknown
Shape & HBRUnknown
Radar Cross SectionSmall (<0.1 m²)

Expand to show TLE details & history

TLE from 1 day ago
0 OBJECT C
1 60205U 24125C   24355.52571527  .00026999  00000-0  91856-3 0  9997
2 60205  97.2963 204.3945 0019878  21.4516 338.7554 15.30211020 25805
Epoch: 2024-12-20T12:37Z
Definitive object data (Epoch: 2024-12-20T12:37:01.799Z)
Latitude0.00003°
Longitude-74.45297°
Altitude465.593 km
Speed7.641 km/s
True Right ascension13h 37m 34s
True Declination0° 00' 00"
Sunlit
Object was in daylight at TLE epoch
Visualization TLE readout
Latitude48.10981°
Longitude114.82387°
Altitude488.131 km
Speed7.623 km/s
Apparent Right ascension02h 35m 12s
Apparent Declination6° 08' 32"
Sunlit
Object is in full shadow
Visualization observer readout
Local Sidereal Time14:54:27
Azimuth6.626° NNE
Elevation-43.728°
Doppler factor1
Orbital elements
Apogee altitude485.747 km
Perigee altitude458.513 km
Semi-major axis6,850.267 km
Eccentricity0.0019878
Inclination97.2963°
RAAN204.3945°
Arg. of periapsis21.4516°
True anomaly338.67267°
Mean anomaly338.7554°
Eccentric anomaly338.71405°
Mean motion3.82809 °/min
BSTAR0.00091856
Orbital period94.04 mins
Loading maneuver chart data...
Loading historical data...
Loading historical data...
Loading historical data...
Loading historical data...
Loading historical data...
Loading historical data...
Loading historical data...

OBJECT C Visibility forecast

Observer location: undefined°, undefined

Span
Click to sort rows by Start time (UTC) header in descending order
Start Az.
Max El. time (UTC)
Max El. Az.
Max El.
End time (UTC)
End Az.
6 mins2024-12-22 02:50:05.497Z18.776° NNE2024-12-22 02:53:05.497Z64.191° ENE40.172°2024-12-22 02:56:05.497Z179.685° S
|